Eelde, Netherlands

8:35 AM CEST on August 21, 2017 (GMT +0200)
Eelde

Weather History for EHGG - November, 2012

Change the Weather History Date:

Friday, November 23, 2012

  Actual Average Record
Temperature  
Mean Temperature 42 °F -  
Max Temperature 46 °F 42 °F 55 °F (2006)
Min Temperature 37 °F 33 °F 17 °F (1998)
Degree Days  
Heating Degree Days 24    
Moisture  
Dew Point 40 °F    
Average Humidity 88    
Maximum Humidity 100    
Minimum Humidity 70    
Precipitation  
Precipitation 0.16 in 0.10 in - ()
Sea Level Pressure  
Sea Level Pressure 29.94 in    
Wind  
Wind Speed 12 mph ()    
Max Wind Speed 17 mph    
Max Gust Speed 28 mph    
Visibility 5.4 miles    
Events Rain    
Averages and records for this station are not official NWS values.
T = Trace of Precipitation, MM = Missing Value Source: Averaged Metar Reports

Daily Weather History Graph

Daily Weather History Graph

Search for Another Location

Airport or City:

Trip Planner

Search our weather history database for the weather conditions in past years. The results will help you decide how hot, cold, wet, or windy it might be!

Date:

Astronomy

Nov. 23, 2012 Rise Set
Actual Time 8:12 AM CET 4:27 PM CET
Civil Twilight 7:32 AM CET 5:07 PM CET
Nautical Twilight 6:49 AM CET 5:50 PM CET
Astronomical Twilight 6:07 AM CET 6:31 PM CET
Moon 2:06 PM CET (11/23) 2:39 AM CET (11/23)
Length of Visible Light 9h 34m
Length of Day
8h 14m
Waxing Gibbous, 77% of the Moon is Illuminated
Nov 23
Waxing Gibbous
Nov 28
Full
Dec 6
Last Quarter
Dec 13
New
Dec 20
First Quarter

Hourly Weather History & Observations

Time (CET) Temp. Windchill Dew Point Humidity Pressure Visibility Wind Dir Wind Speed Gust Speed Precip Events Conditions
12:25 AM 42.8 °F 35.1 °F 39.2 °F 87% 29.98 in 6.2 mi South 16.1 mph - N/A   Unknown
12:55 AM 42.8 °F 35.4 °F 39.2 °F 87% 29.98 in 6.2 mi South 15.0 mph - N/A   Unknown
1:00 AM 43 °F - 39 °F 79% 29.99 in 11 mi South 15.7 mph - -   Partly Cloudy
1:25 AM 42.8 °F 35.8 °F 39.2 °F 87% 29.98 in 6.2 mi South 13.8 mph - N/A   Unknown
1:55 AM 42.8 °F 35.4 °F 39.2 °F 87% 29.95 in 6.2 mi South 15.0 mph - N/A   Unknown
2:25 AM 42.8 °F 35.1 °F 39.2 °F 87% 29.95 in 6.2 mi South 16.1 mph - N/A   Unknown
2:55 AM 42.8 °F 35.1 °F 37.4 °F 81% 29.95 in 6.2 mi South 16.1 mph - N/A   Unknown
3:25 AM 42.8 °F 35.1 °F 37.4 °F 81% 29.95 in 6.2 mi South 16.1 mph - N/A   Unknown
3:55 AM 42.8 °F 35.1 °F 37.4 °F 81% 29.92 in 6.2 mi South 16.1 mph - N/A   Unknown
4:00 AM 42 °F - 38 °F 81% 29.94 in 8 mi South 15.7 mph - -   Scattered Clouds
4:25 AM 42.8 °F 35.1 °F 37.4 °F 81% 29.92 in 6.2 mi South 16.1 mph - N/A   Unknown
4:55 AM 42.8 °F 35.1 °F 39.2 °F 87% 29.89 in 6.2 mi South 16.1 mph - N/A   Unknown
5:25 AM 42.8 °F 34.8 °F 39.2 °F 87% 29.89 in 6.2 mi South 17.3 mph - N/A   Unknown
5:55 AM 42.8 °F 35.4 °F 39.2 °F 87% 29.89 in 6.2 mi South 15.0 mph - N/A   Unknown
6:25 AM 44.6 °F 37.4 °F 39.2 °F 81% 29.89 in 6.2 mi South 16.1 mph - N/A   Unknown
6:55 AM 44.6 °F 38.1 °F 39.2 °F 81% 29.89 in 6.2 mi South 13.8 mph - N/A   Unknown
7:00 AM 44 °F - 40 °F 79% 29.88 in 9 mi South 13.4 mph - -   Partly Cloudy
7:25 AM 44.6 °F 38.1 °F 39.2 °F 81% 29.86 in 6.2 mi South 13.8 mph - N/A   Unknown
7:55 AM 44.6 °F 37.8 °F 39.2 °F 81% 29.86 in 6.2 mi South 15.0 mph - N/A   Unknown
8:25 AM 44.6 °F 38.1 °F 39.2 °F 81% 29.86 in 6.2 mi South 13.8 mph - N/A   Unknown
8:55 AM 44.6 °F 37.2 °F 39.2 °F 81% 29.86 in 6.2 mi South 17.3 mph - N/A   Unknown
9:25 AM 46.4 °F 40.1 °F 41.0 °F 81% 29.86 in 6.2 mi South 15.0 mph - N/A   Scattered Clouds
9:55 AM 46.4 °F 40.1 °F 41.0 °F 81% 29.86 in 6.2 mi South 15.0 mph - N/A   Scattered Clouds
10:00 AM 47 °F - 40 °F 70% 29.88 in 14 mi South 15.7 mph - -   Overcast
10:25 AM 46.4 °F 39.8 °F 41.0 °F 81% 29.89 in 6.2 mi South 16.1 mph - N/A Rain Drizzle
10:55 AM 46.4 °F 40.4 °F 41.0 °F 81% 29.89 in 6.2 mi South 13.8 mph - N/A   Drizzle
11:25 AM 46.4 °F 39.8 °F 42.8 °F 87% 29.89 in 5.6 mi SSW 16.1 mph 27.6 mph N/A Rain Light Rain
11:55 AM 44.6 °F 37.8 °F 42.8 °F 93% 29.89 in 6.2 mi SSW 15.0 mph - N/A Rain Light Rain Showers
12:25 PM 44.6 °F 38.1 °F 42.8 °F 93% 29.89 in 5.6 mi SSW 13.8 mph - N/A Rain Light Rain
12:55 PM 44.6 °F 38.4 °F 42.8 °F 93% 29.89 in 5.6 mi SSW 12.7 mph - N/A Rain Light Rain Showers
1:00 PM 45 °F - 43 °F 90% 29.91 in 6 mi SSW 13.4 mph - - Rain Rain
1:25 PM 44.6 °F 38.4 °F 42.8 °F 93% 29.89 in 6.2 mi SSW 12.7 mph - N/A Rain Light Rain
1:55 PM 44.6 °F 38.8 °F 42.8 °F 93% 29.92 in 6.2 mi SW 11.5 mph - N/A Rain Light Rain
2:25 PM 44.6 °F 39.2 °F 42.8 °F 93% 29.92 in 6.2 mi SSW 10.4 mph - N/A Rain Light Rain
2:55 PM 44.6 °F 38.8 °F 42.8 °F 93% 29.92 in 6.2 mi SW 11.5 mph - N/A   Overcast
3:25 PM 44.6 °F 39.2 °F 42.8 °F 93% 29.92 in 6.2 mi SW 10.4 mph - N/A   Scattered Clouds
3:55 PM 44.6 °F 39.7 °F 42.8 °F 93% 29.92 in 6.2 mi SW 9.2 mph - N/A   Overcast
4:00 PM 44 °F - 43 °F 94% 29.95 in 6 mi SSW 8.9 mph - -   Partly Cloudy
4:25 PM 42.8 °F 38.6 °F 41.0 °F 93% 29.95 in 5.0 mi SSW 6.9 mph - N/A   Partly Cloudy
4:55 PM 42.8 °F 38.6 °F 41.0 °F 93% 29.95 in 3.7 mi SSW 6.9 mph - N/A   Scattered Clouds
5:25 PM 39.2 °F 35.9 °F 39.2 °F 100% 29.95 in 1.5 mi SSW 4.6 mph - N/A   Scattered Clouds
5:55 PM 41.0 °F 39.0 °F 39.2 °F 93% 29.95 in 1.2 mi SSW 3.5 mph - N/A   Mostly Cloudy
6:25 PM 39.2 °F 35.0 °F 39.2 °F 100% 29.98 in 1.7 mi South 5.8 mph - N/A   Partly Cloudy
6:55 PM 39.2 °F 35.0 °F 37.4 °F 93% 29.98 in 1.7 mi SSW 5.8 mph - N/A   Mist
7:00 PM 39 °F - 38 °F 95% 30.00 in 2 mi SSW 6.7 mph - -   Mist
7:25 PM 41.0 °F 36.4 °F 39.2 °F 93% 29.98 in - SSW 6.9 mph - N/A   Mostly Cloudy
7:55 PM 41.0 °F 36.4 °F 39.2 °F 93% 30.01 in - SSW 6.9 mph - N/A   Overcast
8:25 PM 42.8 °F 38.6 °F 41.0 °F 93% 30.01 in - SSW 6.9 mph - N/A   Overcast
8:55 PM 41.0 °F 37.1 °F 39.2 °F 93% 30.01 in - SSW 5.8 mph - N/A   Mostly Cloudy
9:25 PM 41.0 °F 36.4 °F 39.2 °F 93% 30.01 in - South 6.9 mph - N/A   Partly Cloudy
9:55 PM 39.2 °F 34.2 °F 37.4 °F 93% 30.01 in 1.6 mi SSW 6.9 mph - N/A   Mist
10:00 PM 38 °F - 37 °F 97% 30.04 in 1 mi SSW 6.7 mph - -   Mist
10:25 PM 37.4 °F 33.8 °F 35.6 °F 93% 30.04 in 0.7 mi SSW 4.6 mph - N/A   Mist
10:55 PM 37.4 °F 33.8 °F 37.4 °F 100% 30.04 in 1.6 mi SSW 4.6 mph - N/A   Partly Cloudy
11:25 PM 39.2 °F 37.0 °F 39.2 °F 100% 30.04 in 1.6 mi SSW 3.5 mph - N/A   Overcast
11:55 PM 39.2 °F 37.0 °F 37.4 °F 93% 30.04 in 0.9 mi South 3.5 mph - N/A   Mist